x

Frying Pan Shoals, Nc Buoy (41013) Wave Buoy

6:50am - Sat 10th Dec 2016 All times are EST. -5 hours from GMT.

  • Sig Wave height 3.6ft
  • Swell Direction
  • Peak Period 4s
  • Average Period 4s
  • Wind
    16mph, 25mph gusts
  • Sea Temp 72°f
  • 空気 Temp 44°f
  • Sea Pressure 1032.8mb
  • Frying Pan Shoals, Nc Buoy
  • Frying Pan Shoals, Nc Buoy

More Historic Weather Station data

Upgrade to MSW Pro to gain access to the past 30 days of data for over 8000 Wavebouys and Weather Stations around the globe.

Join Pro

Comparision Forecast

View Surf forecast
   
Sat 12/10 6:50am 3.5ft 4s 4s 16 25 mph 1032.8mb 72f 44f
6:40am 3.5ft  -  4s 16 22 mph 1032.7mb 72f 44f
6:30am  -   -   -  18 22 mph 1032.5mb 72f 44f
6:20am  -   -   -  16 22 mph 1032.5mb 72f 44f
6:10am  -   -   -  18 25 mph 1032.5mb 72f 44f
6:00am  -   -   -  16 27 mph 1032.3mb 72f 45f
5:50am 3.5ft 5s 4s 18 25 mph 1032.3mb 72f 45f
5:40am 3.5ft  -  4s 20 29 mph 1032.2mb 72f 45f
5:30am  -   -   -  16 25 mph 1032mb 72f 45f
5:20am  -   -   -  16 27 mph 1032mb 72f 45f
5:10am  -   -   -  18 22 mph 1031.8mb 72f 45f
5:00am  -   -   -  18 22 mph 1032mb 73f 45f
4:50am 3.5ft 4s 4s 18 25 mph 1031.8mb 72f 45f
4:40am 3.5ft  -  4s 16 22 mph 1031.5mb 73f 45f
4:30am  -   -   -  18 25 mph 1031.3mb 73f 45f
4:20am  -   -   -  18 27 mph 1031.3mb 73f 45f
4:10am  -   -   -  18 25 mph 1031.2mb 73f 45f
4:00am  -   -   -  18 27 mph 1031mb 73f 46f
3:50am 3.5ft 5s 4s 18 22 mph 1031mb 73f 45f
3:40am  -   -   -  18 22 mph 1031mb 73f 45f
3:30am  -   -   -  18 25 mph 1031.2mb 73f 45f
3:20am  -   -   -  16 22 mph 1031.2mb 73f 45f
3:10am  -   -   -  16 25 mph 1031.3mb 73f 45f
3:00am  -   -   -  13 20 mph 1031.3mb 73f 45f
2:50am 3.5ft 5s 4s 16 25 mph 1031.2mb 73f 45f
2:40am  -   -   -  16 22 mph 1031.2mb 73f 45f
2:30am  -   -   -  16 25 mph 1031mb 73f 45f
2:20am  -   -   -  16 22 mph 1031.2mb 73f 45f
2:10am  -   -   -  16 25 mph 1031.3mb 73f 45f
2:00am  -   -   -  13 20 mph 1031.3mb 73f 45f
1:50am 3.5ft 5s 4s 13 22 mph 1031.3mb 73f 45f
1:40am  -   -   -  13 20 mph 1031.3mb 73f 45f
1:30am  -   -   -  16 22 mph 1031.3mb 73f 44f
1:20am  -   -   -  13 25 mph 1031.3mb 73f 44f
1:10am  -   -   -  16 22 mph 1031.2mb 72f 45f
1:00am  -   -   -  16 22 mph 1031mb 73f 45f
12:50am 3.5ft 4s 4s 16 22 mph 1031mb 73f 45f
12:40am 3.5ft  -  4s 16 22 mph 1031mb 72f 45f
12:30am  -   -   -  16 22 mph 1030.8mb 72f 45f
12:20am  -   -   -  16 20 mph 1030.8mb 72f 45f
12:10am  -   -   -  16 22 mph 1030.8mb 72f 45f
12:00am  -   -   -  16 25 mph 1030.8mb 72f 45f
Fri 12/09 11:50pm 3.5ft 4s 4s 16 22 mph 1031mb 72f 45f
11:40pm 3.5ft  -  4s 16 20 mph 1031mb 72f 45f
11:20pm  -   -   -  16 22 mph 1031mb 72f 45f
11:10pm  -   -   -  16 22 mph 1031mb 72f 45f
11:00pm  -   -   -  13 22 mph 1031mb 72f 45f
10:50pm 3ft 5s 4s 16 22 mph 1031.2mb 72f 45f
10:40pm  -   -   -  13 20 mph 1031.2mb 72f 45f
10:30pm  -   -   -  16 20 mph 1031mb 72f 45f
10:20pm  -   -   -  16 22 mph 1031mb 72f 45f
10:10pm  -   -   -  18 22 mph 1030.8mb 72f 46f
10:00pm  -   -   -  16 22 mph 1030.8mb 72f 45f
9:50pm 3.5ft 4s 4s 16 25 mph 1030.8mb 72f 46f
9:40pm 3.5ft  -  4s 18 22 mph 1030.5mb 72f 46f
9:30pm  -   -   -  18 25 mph 1030.7mb 72f 46f
9:20pm  -   -   -  16 22 mph 1030.5mb 72f 46f
9:10pm  -   -   -  18 25 mph 1030.5mb 72f 46f
9:00pm  -   -   -  16 22 mph 1030.5mb - 46f
8:50pm 3.5ft 4s 4s 16 25 mph 1030.5mb 72f 46f
8:40pm  -   -   -  16 25 mph - 72f 46f
8:30pm  -   -   -  16 27 mph 1030.5mb 72f 46f
8:20pm  -   -   -  16 22 mph 1030.5mb 72f 46f
8:10pm  -   -   -  16 22 mph 1030.5mb 72f 47f
8:00pm  -   -   -  16 20 mph 1030.5mb 72f 47f
7:50pm 3.5ft 8s 4s 16 22 mph 1030.3mb 72f 47f
7:40pm 3.5ft  -  4s 16 25 mph 1030.3mb 72f 47f
7:30pm  -   -   -  16 22 mph 1030.2mb 72f 46f
7:20pm  -   -   -  16 25 mph 1030mb 72f 47f
7:10pm  -   -   -  18 22 mph 1030mb 72f 47f
7:00pm  -   -   -  18 22 mph 1029.7mb 72f 47f
6:50pm 3.5ft 6s 4s 18 25 mph 1029.5mb 72f 47f
6:40pm 3.5ft  -  4s 18 25 mph 1029.5mb 72f 47f
6:30pm  -   -   -  16 22 mph 1029.3mb 72f 47f
6:20pm  -   -   -  18 25 mph 1029.2mb 72f 47f
6:10pm  -   -   -  16 22 mph 1029mb 73f 47f
6:00pm  -   -   -  16 22 mph 1028.8mb 72f 47f
5:50pm 3.5ft 6s 4s 16 22 mph 1028.7mb 73f 47f
5:40pm 3.5ft  -  4s 16 22 mph 1028.7mb 73f 47f
5:30pm  -   -   -  16 22 mph 1028.5mb 73f 47f
5:20pm  -   -   -  16 22 mph 1028.5mb 73f 47f
5:10pm  -   -   -  18 22 mph 1028.5mb 73f 47f
5:00pm  -   -   -  16 25 mph 1028.3mb 73f 47f
4:50pm 3.5ft 6s 4s 16 25 mph 1028.3mb 73f 47f
4:40pm  -   -   -  16 20 mph 1028mb 73f 47f
4:30pm  -   -   -  13 20 mph 1028mb 73f 47f
4:20pm  -   -   -  13 20 mph 1027.8mb 73f 47f
4:10pm  -   -   -  11 18 mph 1027.8mb 73f 47f
4:00pm  -   -   -  13 18 mph 1027.8mb 73f 47f
3:50pm 3.5ft 7s 4s 11 18 mph 1027.7mb 73f 46f
3:40pm 3.5ft  -  4s 11 18 mph 1027.5mb 73f 46f
3:30pm  -   -   -  9 16 mph 1027.5mb 73f 46f
3:20pm  -   -   -  11 16 mph 1027.3mb 73f 46f
3:10pm  -   -   -  11 18 mph 1027.2mb 73f 46f
3:00pm  -   -   -  13 18 mph 1027mb 73f 46f
2:50pm 3.5ft 6s 4s 13 20 mph 1027mb 73f 46f
2:40pm 3.5ft  -  4s 13 20 mph 1027mb 73f 46f
2:30pm  -   -   -  13 20 mph 1027mb 73f 45f
2:20pm  -   -   -  16 20 mph 1027.3mb 73f 45f
2:10pm  -   -   -  16 20 mph 1027.2mb 73f 45f
2:00pm  -   -   -  16 20 mph 1027.2mb 73f 45f
1:50pm 4ft 6s 5s 16 22 mph 1027.3mb 73f 45f
1:40pm  -   -   -  16 25 mph 1027.3mb 73f 45f
1:30pm  -   -   -  16 22 mph 1027mb 73f 45f
1:20pm  -   -   -  16 22 mph 1027.3mb 73f 45f
1:10pm  -   -   -  16 25 mph 1027.2mb 73f 45f
1:00pm  -   -   -  16 22 mph 1027.3mb 73f 45f
12:50pm 4.5ft 6s 5s 16 22 mph 1027.3mb 73f 44f
12:40pm 4.5ft  -  5s 16 22 mph 1027.3mb 73f 44f
12:30pm  -   -   -  16 22 mph 1027.3mb 73f 44f
12:20pm  -   -   -  16 22 mph 1027.5mb 73f 44f
12:10pm  -   -   -  18 25 mph 1027.5mb 73f 45f
12:00pm  -   -   -  18 27 mph 1027.8mb - -
11:50am 5ft 6s 5s 20 25 mph 1027.8mb 73f 45f
11:40am 5ft  -  5s 18 27 mph 1027.8mb 73f 45f
11:30am  -   -   -  18 27 mph 1028mb 73f 45f
11:20am  -   -   -  18 27 mph 1028.2mb 73f 45f
11:10am  -   -   -  18 27 mph 1028.3mb 73f 44f
11:00am  -   -   -  18 27 mph 1028.5mb 73f 45f
10:50am 5ft 6s 5s 18 25 mph 1028.5mb 73f 45f
10:40am  -   -   -  20 27 mph 1028.5mb 73f 45f
10:30am  -   -   -  20 27 mph 1028.5mb 73f 45f
10:20am  -   -   -  20 29 mph 1028.5mb 73f 45f
10:10am  -   -   -  20 27 mph 1028.3mb 73f 45f
10:00am  -   -   -  20 29 mph 1028.3mb 73f 45f
9:50am 5.5ft 6s 5s 20 27 mph 1028.2mb 73f 46f
9:40am  -   -   -  22 29 mph 1028mb 73f 46f
9:30am  -   -   -  22 31 mph 1028mb 73f 46f
9:20am  -   -   -  22 29 mph 1027.8mb 73f 46f
9:10am  -   -   -  22 31 mph 1027.8mb 73f 46f
9:00am  -   -   -  22 34 mph 1027.5mb 73f 46f
8:50am 5ft 6s 4s 22 31 mph 1027.5mb 73f 46f
8:40am 5ft  -  4s 22 29 mph 1027.5mb 73f 47f
8:30am  -   -   -  22 31 mph 1027.3mb 73f 47f
8:20am  -   -   -  25 31 mph 1027mb 73f 47f
8:10am  -   -   -  22 31 mph 1027mb 73f 48f
8:00am  -   -   -  22 31 mph 1027mb 73f 48f
7:50am 5.5ft 6s 5s 22 29 mph 1026.8mb 73f 48f
7:40am 5.5ft  -  5s 22 29 mph 1026.8mb 73f 48f
7:30am  -   -   -  22 29 mph 1026.8mb 73f 48f
7:20am  -   -   -  22 29 mph 1026.7mb 73f 48f
7:10am  -   -   -  22 31 mph 1026.3mb 73f 48f
7:00am  -   -   -  22 29 mph 1026.3mb 73f 48f
6:50am 5.5ft 6s 4s 22 36 mph 1026mb 73f 49f
6:40am 5.5ft  -  4s 25 31 mph 1025.8mb 73f 49f
6:30am  -   -   -  25 34 mph 1025.7mb 73f 49f
6:20am  -   -   -  22 29 mph 1025.5mb 73f 49f
6:10am  -   -   -  25 31 mph 1025.5mb 73f 49f
6:00am  -   -   -  25 34 mph 1025.2mb 73f 49f
5:50am 5.5ft 5s 4s 25 31 mph 1025mb 73f 49f
5:40am  -   -   -  25 34 mph 1024.8mb 73f 49f
5:30am  -   -   -  25 31 mph 1024.7mb 73f 49f
5:20am  -   -   -  25 31 mph 1024.7mb 73f 49f
5:10am  -   -   -  25 31 mph 1024.5mb 73f 50f
5:00am  -   -   -  25 31 mph 1024.2mb 73f 50f
4:50am 5ft 5s 4s 25 29 mph 1024mb 73f 50f
4:40am 5ft  -  4s 25 31 mph 1024mb 73f 50f
4:30am  -   -   -  25 29 mph 1023.9mb 73f 50f
4:20am  -   -   -  25 31 mph 1023.6mb 73f 51f
4:10am  -   -   -  22 31 mph 1023.5mb 73f 51f
4:00am  -   -   -  25 31 mph 1023.4mb 73f 51f
3:50am 4.5ft 6s 4s 25 31 mph 1023.3mb 73f 51f
3:40am 4.5ft  -  4s 25 29 mph 1023.5mb 73f 52f
3:30am  -   -   -  22 31 mph 1023.5mb 73f 52f
3:20am  -   -   -  22 29 mph 1023.4mb 73f 52f
3:10am  -   -   -  22 29 mph 1023.3mb 73f 52f
3:00am  -   -   -  22 34 mph 1023.4mb 73f 52f
2:50am 5ft 5s 4s 22 29 mph 1023.3mb 74f 52f
2:40am 5ft  -  4s 22 27 mph 1023.1mb 74f 52f
2:30am  -   -   -  22 29 mph 1023.4mb 74f 52f
2:20am  -   -   -  22 27 mph 1023.1mb 74f 53f
2:10am  -   -   -  20 29 mph 1023.3mb 74f 53f
2:00am  -   -   -  22 29 mph 1023.1mb 74f 53f
1:50am 5ft 6s 4s 20 27 mph 1023.1mb 74f 53f
1:40am 5ft  -  4s 20 27 mph 1022.9mb 74f 53f
1:30am  -   -   -  22 29 mph 1022.8mb 73f 53f
1:20am  -   -   -  20 29 mph 1022.6mb 74f 53f
1:10am  -   -   -  20 27 mph 1022.6mb 73f 53f
1:00am  -   -   -  22 29 mph 1022.9mb 73f 54f
12:50am 5ft 5s 5s 22 29 mph 1022.6mb 73f 54f
12:40am 5ft  -  5s 22 31 mph 1022.6mb 73f 54f
12:30am  -   -   -  22 29 mph 1022.5mb 73f 54f
12:20am  -   -   -  25 31 mph 1022.4mb 73f 54f
12:10am  -   -   -  25 31 mph 1022.4mb 73f 54f
12:00am  -   -   -  22 31 mph 1022.4mb 73f 54f
Thu 12/08 11:50pm 5ft 5s 5s 25 34 mph 1022.4mb 73f 54f
11:40pm  -   -   -  25 31 mph 1022.5mb 73f 54f
11:30pm  -   -   -  25 31 mph 1022.5mb 73f 55f
11:20pm  -   -   -  25 34 mph 1022.5mb 73f 55f
11:10pm  -   -   -  25 34 mph 1022.6mb 73f 55f
11:00pm  -   -   -  25 34 mph 1022.8mb 73f 55f
10:50pm 5ft 5s 5s 25 34 mph 1022.5mb 73f 55f
10:40pm  -   -   -  27 34 mph 1022.4mb 73f 55f
10:30pm  -   -   -  27 34 mph 1022.4mb 73f 55f
10:20pm  -   -   -  25 34 mph 1022.5mb 73f 55f
10:10pm  -   -   -  25 31 mph 1022.5mb 73f 55f
10:00pm  -   -   -  25 31 mph 1022.5mb 73f 55f
9:50pm 5ft 6s 5s 22 29 mph 1022.5mb 73f 55f
9:40pm 5ft  -  5s 22 31 mph 1022.4mb 73f 56f
9:30pm  -   -   -  22 31 mph 1022.5mb 73f 56f
9:20pm  -   -   -  22 29 mph 1022.6mb 73f 56f
9:10pm  -   -   -  25 29 mph 1022.3mb 73f 56f
9:00pm  -   -   -  22 31 mph 1022.4mb 73f 56f
8:50pm 5ft 5s 4s 25 31 mph 1022mb 73f 56f
8:40pm 5ft  -  4s 25 31 mph 1021.8mb 73f 56f
8:30pm  -   -   -  25 34 mph 1021.5mb 73f 56f
8:20pm  -   -   -  25 31 mph 1021.4mb 73f 57f
8:10pm  -   -   -  27 31 mph 1021.3mb 73f 57f
8:00pm  -   -   -  25 31 mph 1021.3mb 73f 57f
7:50pm 3.5ft 4s 4s 25 34 mph 1021.3mb 73f 58f
7:40pm 3.5ft  -  4s 25 34 mph 1021mb 73f 58f
7:30pm  -   -   -  22 29 mph 1020.8mb 73f 58f
7:20pm  -   -   -  20 29 mph 1021mb 73f 58f
7:10pm  -   -   -  22 27 mph 1021mb 73f 59f
7:00pm  -   -   -  22 27 mph 1020.5mb 73f 58f
6:50pm 3ft 10s 4s 22 27 mph 1020.5mb 74f 59f
6:40pm 3ft  -  4s 22 27 mph 1020.4mb 74f 59f
6:30pm  -   -   -  20 27 mph 1020.1mb 74f 59f
6:20pm  -   -   -  20 25 mph 1020mb 74f 59f
6:10pm  -   -   -  20 27 mph 1020mb 74f 59f
6:00pm  -   -   -  20 27 mph 1019.6mb 74f 60f
5:50pm 3.5ft 4s 4s 18 22 mph 1019.5mb 74f 61f
5:40pm  -   -   -  16 18 mph 1019.3mb 74f 61f
5:30pm  -   -   -  16 20 mph 1019.1mb 74f 61f
5:20pm  -   -   -  16 25 mph 1019mb 74f 61f
5:10pm  -   -   -  16 22 mph 1018.8mb 74f 60f
5:00pm  -   -   -  16 20 mph 1018.8mb 74f 60f
4:50pm 3.5ft 4s 4s 16 20 mph 1018.5mb 74f 60f
4:40pm 3.5ft  -  4s 16 20 mph 1018.5mb 74f 60f
4:30pm  -   -   -  16 20 mph 1018.3mb 74f 60f
4:20pm  -   -   -  16 20 mph 1018mb 74f 60f
4:10pm  -   -   -  16 22 mph 1018mb 74f 60f
4:00pm  -   -   -  16 20 mph 1017.9mb 74f 60f
3:50pm 3.5ft 4s 4s 16 22 mph 1017.6mb 74f 60f
3:40pm 3.5ft  -  4s 18 25 mph 1017.5mb 74f 60f
3:30pm  -   -   -  16 20 mph 1017.4mb 74f 60f
3:20pm  -   -   -  18 22 mph 1017.1mb 74f 60f
3:10pm  -   -   -  18 25 mph 1017mb 74f 60f
3:00pm  -   -   -  18 25 mph 1017mb 74f 60f
2:50pm 3.5ft 4s 4s 18 25 mph 1017mb 74f 60f
2:40pm 3.5ft  -  4s 18 22 mph 1016.9mb 74f 60f
2:30pm  -   -   -  18 25 mph 1016.8mb 74f 60f
2:20pm  -   -   -  18 25 mph 1017mb 74f 60f
2:10pm  -   -   -  20 25 mph 1016.9mb 74f 60f
2:00pm  -   -   -  20 25 mph 1016.8mb 74f 60f
1:50pm 3.5ft 4s 4s 20 27 mph 1016.8mb 74f 61f
1:40pm 3.5ft  -  4s 20 25 mph 1016.8mb 74f 61f
1:30pm  -   -   -  20 25 mph 1016.6mb 74f 61f
1:20pm  -   -   -  18 25 mph 1016.8mb 74f 61f
1:10pm  -   -   -  18 22 mph 1016.9mb 74f 61f
1:00pm  -   -   -  18 22 mph 1017mb 74f 61f
12:50pm 3.5ft 10s 4s 18 22 mph 1017.3mb 74f 61f
12:40pm 3.5ft  -  4s 16 22 mph 1017.4mb 74f 61f
12:30pm  -   -   -  16 20 mph 1017.6mb 74f 61f
12:20pm  -   -   -  16 20 mph 1017.8mb 74f 61f
12:10pm  -   -   -  16 20 mph 1018mb 74f 61f
12:00pm  -   -   -  16 20 mph 1018mb 74f 61f
11:50am 3ft 4s 4s 16 20 mph 1018.1mb 74f 61f
11:40am 3ft  -  4s 16 22 mph 1018.3mb 74f 60f
11:30am  -   -   -  16 20 mph 1018.4mb 74f 61f
11:20am  -   -   -  16 22 mph 1018.5mb 74f 61f
11:10am  -   -   -  16 20 mph 1018.5mb - 61f
11:00am  -   -   -  13 20 mph 1018.6mb 74f 62f
10:50am 2.5ft 9s 4s 16 18 mph 1018.8mb 74f 61f
10:40am  -   -   -  13 20 mph 1019mb 74f 62f
10:30am  -   -   -  13 18 mph 1019mb - -
10:20am  -   -   -  16 22 mph 1019mb 73f 62f
10:10am  -   -   -  16 18 mph 1018.9mb 73f 62f
10:00am  -   -   -  16 20 mph 1019mb 73f 62f
9:50am 2.5ft 10s 5s 13 18 mph 1019mb 73f 63f
9:40am 2.5ft  -  5s 13 18 mph 1018.8mb 73f 63f
9:30am  -   -   -  11 18 mph 1018.8mb 73f 63f
9:20am  -   -   -  11 16 mph 1018.8mb 73f 63f
9:10am  -   -   -  11 16 mph 1018.5mb 73f 63f
9:00am  -   -   -  11 13 mph 1018.3mb 73f 63f
8:50am 3ft 7s 5s 11 16 mph 1018.1mb 73f 63f
8:40am 3ft  -  5s 11 13 mph 1018.1mb 73f 63f
8:30am  -   -   -  9 13 mph 1018mb 73f 63f
8:20am  -   -   -  11 13 mph 1018mb - -
8:10am  -   -   -  11 16 mph 1018mb - -
8:00am  -   -   -  11 16 mph 1018mb - -
7:50am 3.5ft 10s 5s 11 16 mph 1018mb 73f 63f
7:40am 3.5ft  -  5s 11 16 mph 1018mb 73f 63f
7:30am  -   -   -  11 13 mph 1018mb 74f 63f
7:20am  -   -   -  11 16 mph 1018mb 74f 63f
7:10am  -   -   -  13 18 mph 1018mb 74f 64f
7:00am  -   -   -  16 20 mph 1018mb 73f 64f
6:50am 3ft 9s 5s 16 20 mph 1017.9mb 74f 64f
6:40am 3ft  -  5s 16 20 mph 1017.8mb 74f 64f
6:30am  -   -   -  16 20 mph 1017.8mb 74f 64f
6:20am  -   -   -  13 20 mph 1017.8mb 74f 64f
6:10am  -   -   -  13 20 mph 1017.6mb 73f 64f
6:00am  -   -   -  11 16 mph 1017.6mb 74f 63f
5:50am 3ft 7s 4s 13 16 mph 1017.6mb 74f 63f
5:40am  -   -   -  13 18 mph 1017.6mb 74f 63f
5:30am  -   -   -  16 20 mph 1017.6mb 74f 63f
5:20am  -   -   -  16 20 mph 1017.5mb 74f 63f
5:10am  -   -   -  16 20 mph 1017.5mb 74f 63f
5:00am  -   -   -  16 20 mph 1017.5mb 74f 64f
4:50am 3ft 9s 5s 16 20 mph 1017.5mb 74f 64f
4:40am 3ft  -  5s 16 18 mph 1017.5mb 74f 63f
4:30am  -   -   -  16 20 mph 1017.5mb 74f 63f
4:20am  -   -   -  16 20 mph 1017.5mb 74f 63f
4:10am  -   -   -  18 22 mph 1017.5mb 74f 63f
4:00am  -   -   -  18 22 mph 1017.5mb 74f 62f
3:50am 2.5ft 10s 6s 16 20 mph 1017.5mb 74f 62f
3:40am 2.5ft  -  6s 16 18 mph 1017.5mb 74f 62f
3:30am  -   -   -  16 18 mph 1017.5mb 74f 63f
3:20am  -   -   -  11 18 mph 1017.5mb 74f 63f
3:10am  -   -   -  9 13 mph 1017.5mb 74f 62f
3:00am  -   -   -  7 11 mph 1017.5mb 74f 63f
2:50am 3ft 7s 7s 4 9 mph 1017.5mb 74f 62f
2:40am 3ft  -  7s 4 9 mph 1017.4mb 74f 62f
2:30am  -   -   -  4 7 mph 1017.4mb 74f 62f
2:20am  -   -   -  2 4 mph 1017.3mb 74f 62f
12:50am 3ft 7s 6s 9 13 mph 1017.8mb 74f 63f
Wed 12/07 11:50pm 3ft 7s  -  4 9 mph 1018.4mb 74f 63f
11:30pm  -   -   -  2 7 mph 1018.5mb 74f 62f
11:20pm  -   -   -  2 7 mph 1018.4mb 74f 62f
11:10pm  -   -   -   -  mph 1018.1mb 74f -
11:00pm  -   -   -  2 4 mph 1018.1mb 74f 62f
10:50pm 3ft 7s 6s 2 4 mph 1018.3mb 74f 62f
10:40pm 3ft  -  6s  -  4 mph 1018.4mb 74f 62f
10:30pm  -   -   -  2 4 mph 1018.4mb 74f 62f
10:20pm  -   -   -  2 4 mph 1018.4mb 74f 61f
10:10pm  -   -   -  2 4 mph 1018.3mb 74f 61f
10:00pm  -   -   -  2 4 mph 1018.4mb 74f 62f
9:50pm 3ft 8s 6s  -  2 mph 1018.4mb 74f 61f
9:40pm 3ft  -  6s  -  4 mph 1018.5mb 74f 61f
9:30pm  -   -   -  2 4 mph 1018.5mb 74f 61f
9:20pm  -   -   -   -  2 mph 1018.5mb 74f 61f
9:10pm  -   -   -  2
mph
1018.5mb 73f 61f
9:00pm  -   -   -  2 4 mph 1018.5mb 74f 61f
8:50pm 3ft 8s 6s 2 4 mph 1018.5mb 73f 61f
8:40pm 3ft  -  6s 2 7 mph 1018.5mb 73f 61f
8:30pm  -   -   -  2 4 mph 1018.5mb 73f 61f
8:20pm  -   -   -  2 4 mph 1018.4mb 73f 61f
8:10pm  -   -   -  2 7 mph 1018.5mb 73f 61f
8:00pm  -   -   -  2 4 mph - 73f 61f
7:50pm 3ft  -  5s 4 7 mph 1018.5mb - 61f
7:43pm 3ft 7s 5s  -  mph - 73f -
7:40pm  -   -   -  2 7 mph 1018.5mb 73f 61f
7:30pm  -   -   -  2 4 mph 1018.5mb 73f 60f
7:20pm  -   -   -   -  4 mph 1018.4mb 73f 60f
7:10pm  -   -   -  2 4 mph 1018.3mb 73f 60f
7:00pm  -   -   -  2 4 mph 1018.4mb 73f 60f
6:50pm 3ft 7s 6s 2 4 mph 1018.4mb 73f 60f
6:40pm 3ft  -  6s 2 4 mph 1018.1mb 73f 60f
6:30pm  -   -   -  2 4 mph 1018.1mb 73f 60f
6:20pm  -   -   -  2 4 mph 1018mb 73f 60f
6:10pm  -   -   -  2 4 mph 1017.9mb 73f 60f
6:00pm  -   -   -   -  4 mph 1017.8mb 73f 60f
5:50pm 3.5ft 8s 5s 2 7 mph 1017.6mb 73f 60f
5:40pm 3.5ft  -  5s 2 4 mph 1017.6mb 73f 60f
5:30pm  -   -   -  2 4 mph 1017.6mb 73f 60f
5:20pm  -   -   -  4 7 mph 1017.5mb 73f 60f
5:10pm  -   -   -  4
mph
1017.5mb 73f 60f
5:00pm  -   -   -  4 7 mph 1017.4mb 74f 59f
4:50pm 3.5ft 8s 5s 2 7 mph 1017.4mb 74f 59f
4:40pm  -   -   -  2 7 mph 1017.4mb 74f 59f
4:30pm  -   -   -  4 7 mph 1017.4mb 74f 59f
4:20pm  -   -   -  2 7 mph 1017.4mb 74f 59f
4:10pm  -   -   -  4 7 mph 1017.4mb 74f 59f
4:00pm  -   -   -  4 9 mph 1017.4mb 74f 59f
3:50pm 3.5ft 8s 5s 4 7 mph 1017.5mb 74f 59f
3:40pm 3.5ft  -  5s 4 9 mph 1017.1mb 74f 59f
3:30pm  -   -   -  4 7 mph 1017mb 74f 59f
3:20pm  -   -   -  4 9 mph 1017mb 74f 59f
3:10pm  -   -   -  7 9 mph 1017mb 74f 58f
3:00pm  -   -   -  7 13 mph 1016.9mb 74f 58f
2:50pm 4ft 8s 5s 7 11 mph 1017mb 74f 58f
2:40pm 4ft  -  5s 7 11 mph 1017mb 74f 58f
2:30pm  -   -   -  9 13 mph 1016.9mb 74f 58f
2:20pm  -   -   -  9 13 mph 1016.9mb 74f 58f
2:10pm  -   -   -  9 13 mph 1016.8mb 74f 58f
2:00pm  -   -   -  11 16 mph 1016.6mb 74f 58f
1:50pm 4.5ft 8s 5s 11 16 mph 1016.5mb 74f 58f
1:40pm 4.5ft  -  5s 11 16 mph 1016.6mb 74f 57f
1:30pm  -   -   -  11 16 mph 1016.6mb 74f 57f
1:20pm  -   -   -  11 18 mph 1016.5mb 74f 57f
1:10pm  -   -   -  11 18 mph 1016.5mb 74f 56f
1:00pm  -   -   -  13 18 mph 1016.6mb 74f 57f
12:50pm 3.5ft  -  5s 13 18 mph 1016.5mb 74f 56f
12:43pm 3.5ft 8s 5s  -  mph - - -
12:40pm 3.5ft  -  5s 13 20 mph 1016.5mb 74f 56f
12:30pm  -   -   -  13 20 mph 1016.5mb 74f 56f
12:20pm  -   -   -  16 20 mph 1016.8mb 74f 56f
12:10pm  -   -   -  16 20 mph 1016.8mb 74f 56f
12:00pm  -   -   -  16 20 mph 1016.9mb 74f 56f
11:50am 4ft 8s 5s 16 20 mph 1017mb 74f 56f
11:40am 4ft  -  5s 13 20 mph 1017mb 74f 56f
11:30am  -   -   -  13 18 mph 1017mb 74f 56f
11:20am  -   -   -  13 18 mph 1017mb 74f 56f
11:10am  -   -   -  13 18 mph 1017.1mb 74f 55f
11:00am  -   -   -  16 22 mph 1017.4mb 74f 55f
10:50am 4.5ft 8s 5s 16 20 mph 1017.3mb 74f 55f
10:40am  -   -   -  16 22 mph 1017.5mb 74f 55f
10:30am  -   -   -  18 22 mph 1017.6mb 74f 55f
10:20am  -   -   -  18 25 mph 1017.8mb 74f 55f
10:10am  -   -   -  18 22 mph 1017.8mb 74f 56f
10:00am  -   -   -  18 22 mph 1017.6mb 74f 55f
9:50am 4.5ft  -  5s 18 22 mph 1017.6mb 74f 56f
9:43am 4.5ft 8s 5s  -  mph - - -
9:40am  -   -   -  18 22 mph 1017.6mb 74f 55f
9:30am  -   -   -  18 25 mph 1017.5mb 74f 56f
9:20am  -   -   -  18 22 mph 1017.5mb 74f 55f
9:10am  -   -   -  18 25 mph 1017.4mb 74f 55f
9:00am  -   -   -  18 25 mph 1017.1mb 74f 55f
8:50am 4.5ft 9s 5s 20 25 mph 1017mb 74f 56f
8:40am  -   -   -  20 27 mph 1016.9mb 74f 55f
8:30am  -   -   -  20 27 mph 1016.9mb 74f 56f
8:20am  -   -   -  20 27 mph 1016.9mb 74f 56f
8:10am  -   -   -  20 27 mph 1016.6mb - 56f
8:00am  -   -   -  20 27 mph 1016.6mb 73f 56f
7:50am 4.5ft 9s 5s 20 27 mph 1016.5mb 73f 56f
7:40am 4.5ft  -  5s 20 27 mph 1016.3mb 73f 56f
7:30am  -   -   -  18 25 mph 1016.3mb 73f 56f
7:20am  -   -   -  18 22 mph 1016mb 73f 57f
7:10am  -   -   -  16 22 mph 1016mb - -
7:00am  -   -   -  18 25 mph 1015.9mb 73f 56f
6:50am 5ft 9s 5s 16 22 mph 1015.5mb 74f 57f
6:40am  -   -   -  16 20 mph 1015.5mb 73f 57f
6:30am  -   -   -  13 20 mph 1015.1mb 74f 57f
6:20am  -   -   -  13 20 mph 1015.1mb 73f 56f
6:10am  -   -   -  13 20 mph 1015mb 74f 56f
6:00am  -   -   -  13 18 mph 1015mb 74f 56f
5:50am 5ft 9s 5s 13 18 mph 1014.8mb 73f 56f
5:40am 5ft  -  5s 13 18 mph 1014.6mb 74f 57f
5:30am  -   -   -  13 18 mph 1014.5mb 74f 56f
5:20am  -   -   -  13 20 mph 1014.4mb 74f 56f
5:10am  -   -   -  16 20 mph 1014.1mb 74f 56f
5:00am  -   -   -  16 20 mph 1013.9mb 74f 56f
4:50am 5.5ft 9s 6s 16 20 mph 1013.6mb 74f 56f
4:40am 5.5ft  -  6s 16 22 mph 1013.6mb 74f 57f
4:30am  -   -   -  16 20 mph 1013.5mb 74f 57f
4:20am  -   -   -  13 18 mph 1013.5mb 74f 56f
4:10am  -   -   -  16 20 mph 1013.3mb 74f 56f
4:00am  -   -   -  16 20 mph 1013mb 74f 56f
3:50am 5ft 8s 5s 16 20 mph 1013mb 74f 56f
3:40am 5ft  -  5s 16 20 mph 1012.9mb 74f 57f
3:30am  -   -   -  16 22 mph 1012.8mb 74f 57f
3:20am  -   -   -  18 25 mph 1012.8mb 74f 57f
3:10am  -   -   -  18 25 mph 1012.6mb 74f 57f
3:00am  -   -   -  18 22 mph 1012.6mb 74f 57f
2:50am 5.5ft 8s 5s 18 22 mph 1012.5mb 74f 58f
2:40am 5.5ft  -  5s 18 25 mph 1012.4mb 74f 58f
2:30am  -   -   -  16 22 mph 1012.3mb 74f 58f
2:20am  -   -   -  16 20 mph 1012mb 74f 58f
2:10am  -   -   -  16 22 mph 1012mb 74f 58f
2:00am  -   -   -  16 20 mph 1011.8mb 74f 58f
1:50am 7ft 9s 6s 18 22 mph 1011.5mb 74f 58f
1:40am 7ft  -  6s 18 22 mph 1011.5mb 74f 58f
1:30am  -   -   -  18 25 mph 1011.3mb 74f 58f
1:20am  -   -   -  18 25 mph 1011.1mb 74f 58f
1:10am  -   -   -  20 27 mph 1011.1mb 74f 58f
1:00am  -   -   -  20 25 mph 1011mb 74f 58f
12:50am 7.5ft 9s 6s 20 25 mph 1011mb 74f 59f
12:40am 7.5ft  -  6s 20 27 mph 1011mb 74f 59f
12:30am  -   -   -  20 27 mph 1011mb 74f 59f
12:20am  -   -   -  22 29 mph 1011.1mb 74f 59f
12:10am  -   -   -  22 29 mph 1011mb 74f 59f
12:00am  -   -   -  25 29 mph 1011mb 74f 60f
Tue 12/06 11:50pm 7ft 10s 6s 25 29 mph 1011mb 74f 60f
11:40pm 7ft  -  6s 27 34 mph 1010.9mb 74f 60f
11:30pm  -   -   -  27 34 mph 1010.8mb 74f 60f
11:20pm  -   -   -  25 31 mph 1010.5mb 74f 61f
11:10pm  -   -   -  25 29 mph 1010.5mb 74f 60f
11:00pm  -   -   -  22 29 mph 1010.5mb 74f 61f
10:50pm 8ft 8s 6s 22 29 mph 1010.5mb 74f 61f
10:40pm 8ft  -  6s 22 29 mph 1010.4mb 74f 61f
10:30pm  -   -   -  22 27 mph 1010.3mb 74f 61f
10:20pm  -   -   -  22 27 mph 1010.4mb 74f 61f
10:10pm  -   -   -  22 31 mph 1010mb 74f 61f
10:00pm  -   -   -  25 31 mph 1010mb 74f 61f
9:50pm 8ft 9s 6s 22 31 mph 1010mb 74f 62f
8:50pm 7.5ft 8s 6s 25 34 mph 1009mb 74f 64f
7:50pm 8ft 8s 6s 29 36 mph 1008mb 74f 67f
7:30pm  -   -   -  27 34 mph 1007.8mb 74f 68f
7:20pm  -   -   -  27 34 mph 1007.5mb 74f 68f
7:10pm  -   -   -  27 34 mph 1007.5mb 74f 68f
7:00pm  -   -   -  29 36 mph 1007.4mb 74f 69f
6:50pm 8ft 7s 6s 29 38 mph 1007mb 74f 70f
6:40pm  -   -   -  25 31 mph 1006.8mb 74f 72f
6:30pm  -   -   -  25 31 mph 1006.6mb 74f 72f
6:20pm  -   -   -  27 34 mph 1006.4mb 74f 72f
6:10pm  -   -   -  25 34 mph 1006.1mb 74f 72f
6:00pm  -   -   -  27 31 mph 1006mb 74f 72f
5:50pm 8.5ft 8s 6s 27 36 mph 1005.8mb 74f 72f
5:40pm 8.5ft  -  6s 29 38 mph 1005.6mb 74f 72f
5:30pm  -   -   -  31 40 mph 1005.5mb 74f 73f
5:20pm  -   -   -  31 38 mph 1005.4mb 74f 74f
5:10pm  -   -   -  31 40 mph 1005.1mb 74f 74f
5:00pm  -   -   -  29 38 mph 1005mb 74f 74f
4:50pm 8ft 8s 6s 27 36 mph 1004.8mb 74f 75f
4:40pm 8ft  -  6s 29 36 mph 1004.5mb 74f 75f
4:30pm  -   -   -  27 36 mph 1004.3mb 74f 75f
4:20pm  -   -   -  27 38 mph 1004.3mb 74f 75f
4:10pm  -   -   -  27 36 mph 1004mb 74f 75f
4:00pm  -   -   -  27 36 mph 1003.9mb 74f 75f
3:50pm 7.5ft 7s 6s 25 34 mph 1003.5mb 74f 75f
3:40pm 7.5ft  -  6s 25 29 mph 1003.3mb 74f 75f
3:30pm  -   -   -  25 31 mph 1003.4mb 74f -
3:20pm  -   -   -  22 29 mph 1003.5mb 74f 74f
3:10pm  -   -   -  22 29 mph 1003.5mb 74f 74f
3:00pm  -   -   -  22 29 mph 1003.5mb - -
2:50pm 7ft 7s 5s 22 29 mph 1003.6mb 74f 74f
2:40pm 7ft  -  5s 22 29 mph 1003.6mb 74f 73f
2:30pm  -   -   -  25 31 mph 1003.6mb 74f 73f
2:20pm  -   -   -  27 34 mph 1003.9mb 74f 73f
2:10pm  -   -   -  25 34 mph 1003.9mb 74f 73f
2:00pm  -   -   -  27 34 mph 1003.9mb 74f 73f
1:50pm 6.5ft 7s 5s 27 34 mph 1004.1mb 74f 73f